Other Surface Observations
Issued by NWS

Home | Current Version | Previous Version | Text Only | Print | Product List | Glossary On
Versions: 1 2 3 4 5 6 7 8 9 10 11 12 13 14 15 16 17 18 19 20 21 22 23 24 25 26 27 28 29 30 31 32 33 34 35 36 37 38 39 40 41 42 43 44 45 46 47 48 49 50
000
SXUS52 KTAE 170518
OSOTAE
OSOTAE
North Florida/South Alabama/Southwest Georgia Weather Roundup
National Weather Service Tallahassee Florida
1200 AM EST WED JAN 17 2018

Note: "fair" indicates few or no clouds below 12,000 feet with no
significant weather and/or obstructions to visibility.

!FLZ017-115-028-034-025-170600
...North Florida...

CITY           SKY/WX    TMP DP  RH WIND       PRES   REMARKS
TALLAHASSEE    FAIR      45  38  76 NW8       30.33R WCI  41
APALACHICOLA   MOCLDY    45  41  86 NW10      30.33R WCI  40
PERRY          FAIR      39  36  89 CALM      30.31F
CROSS CITY     FAIR      40  38  96 CALM      30.35F
JACKSONVILLE   FAIR      41  38  89 CALM      30.30F
$$

!FLZ112-006-005-002-011-170600
...Florida Panhandle...

CITY           SKY/WX    TMP DP  RH WIND       PRES   REMARKS
MARIANNA       CLOUDY    44  36  73 NW8       30.37R WCI  39
BONIFAY        NOT AVBL
PANAMA CITY NW CLOUDY    42  35  76 NW13G20   30.37R WCI  35
TYNDALL AFB    CLOUDY    47  38  70 N9        30.36S WCI  42
TYND DRONE APT CLOUDY    47  39  74 N15G21    30.35S WCI  40
DE FUNIAK SPR  CLOUDY    36  30  79 N10       30.40F WCI  28
EGLIN AFB      CLOUDY    37  28  70 N16       30.40R WCI  28
DESTIN         CLOUDY    41  30  65 N17       30.40R WCI  32
HURLBURT       CLOUDY    37  28  71 N21       30.38F WCI  26
CRESTVIEW      CLOUDY    35  27  72 N14G20    30.44S WCI  26
PENSACOLA      CLOUDY    35  26  69 N12G23    30.43R WCI  27
$$

!ALZ063-066-170600
...South Alabama...

CITY           SKY/WX    TMP DP  RH WIND       PRES   REMARKS
DOTHAN         CLOUDY    37  32  82 MISG      30.40F
OZARK CAIRNS   CLOUDY    36  27  70 N10       30.39S WCI  29
FT RUCKER HELI CLOUDY    35  29  76 N8        30.40S WCI  29
RUCKER HELI 3    N/A     34  28  77 N15       30.39F WCI  24
RUCKER HELI 2  CLOUDY    36  29  78 N8        30.39S WCI  29
FLORALA APT    CLOUDY    35  27  72 N9        30.44S WCI  28
ANDALUSIA      CLOUDY    34  27  75 NW8       30.43S WCI  27
TROY           MIX PCPN  30  28  92 NW13      30.43F WCI  20
EUFALA         CLOUDY    37  29  72 NW9       30.38F WCI  30
MOBILE         LGT SNOW  27  23  85 N20G32    30.50R FOG     WCI  13
$$

!GAZ120>161-170600
...Southwest and South Central Georgia...

CITY           SKY/WX    TMP DP  RH WIND       PRES   REMARKS
THOMASVILLE    FAIR      45  39  81 NW7       30.32F WCI  41
BAINBRIDGE     MOCLDY    46  43  87 NW10      30.35F WCI  41
MOODY AFB      FAIR      41  35  79 CALM      30.29F
VALDOSTA       FAIR      35  32  88 CALM      30.30F
MOULTRIE       FAIR      43  37  81 NW5       30.32S WCI  40
BLAKELY        NOT AVBL
ALBANY         CLOUDY    48  39  71 NW8       30.36S WCI  44
TIFTON         FAIR      43  38  83 NW6       30.31S WCI  40
FITZGERALD     FAIR      41  40  99 NW6       30.33S WCI  37
CORDELE        CLOUDY    53  37  54 NW5       30.34S
AMERICUS       CLOUDY    43  34  70 NW8G16    30.35F WCI  38
HOMERVILLE     FAIR      36  36 100 CALM      30.30F
$$

!GMZ750-755-770-775-170600
...Coastal and Buoy Obs...

STATION/POSITION TIME  TEMP    WIND        PRES    VSBY  WAVE
                       AIR SEA DIR/SP/G                  HT/PER
                 (UTC) (F)     (DEG/KT/KT) (MB)    (MI)  (FT/S)
KEATON BEACH     0500   48      70/  6/  6 1025.7F
CEDAR KEY        0500   53      60/  4/  5 1026.2F
C TOWER          0500   57     330/  9/ 10 1026.9S
APALACHICOLA BUO NOT AVBL
PANAMA CITY BUOY 0450   63 70  130/  2/  4 1026.1F         2/ 5
MOBILE BUOY      0500   48 72  360/ 21/ 29 1030.5
ORANGE BCH AL BU NOT AVBL
$$




USA.gov is the U.S. government's official web portal to all federal, state and local government web resources and services.